[[{"header":{"parameterUnit":"m.s-1","parameterCategory":1,"la1":30.2991,"la2":30.254,"lo1":-89.0895,"lo2":-89.0444,"dx":0.0017,"dy":0.0017,"nx":28,"ny":28,"refTime":"2023-01-30T15:00:00:Z","depth":0,"parameterNumber":2,"parameterNumberName":"U-component_of_WINDS"},"data":[0,0,0,0,0,0,0,0,0,0,0,0,0,0,0,0,0,0,0,0,0,0,0,0,0,0,0,0,0,0,0,0,0,0,0,0,0,0,0,0,0,0,0,0,0,0,0,0,0,0,0,0,0,0,0,0,0,0,0.1722,0.1722,0,0.171,0.171,0.171,0.1673,0.1672,0.1671,0.167,0.1659,0.166,0.166,0,0,0,0,0,0,0,0,0,0,0,0,0,0.1713,0.1713,0.1722,0.1722,0.1722,0.171,0.171,0.171,0.1673,0.1672,0.1671,0.167,0.1659,0.166,0.166,0,0,0,0,0,0,0,0,0,0,0,0,0,0.171,0.1713,0.1722,0.1702,0.17,0.171,0.171,0.171,0.1673,0.1672,0.1671,0.167,0.1659,0.166,0.166,0.1689,0,0,0.1662,0.1663,0,0,0,0,0,0,0,0,0.1711,0.1711,0.1705,0.1703,0.1701,0.1692,0.1703,0.1703,0.1673,0.1683,0.167,0.1669,0.1671,0.1671,0.1671,0.1689,0.1688,0.1662,0.1663,0.1663,0.1663,0,0,0,0,0,0,0,0.1711,0.1711,0.1717,0.1705,0.1703,0.1693,0.1692,0.1703,0.1684,0.1682,0.168,0.1679,0.167,0.1671,0.1671,0.1688,0.1662,0.1663,0.1663,0.1664,0.1729,0.1731,0,0,0,0,0,0,0.1714,0.1712,0.1718,0.1717,0.1703,0.1695,0.1693,0.1696,0.1684,0.1681,0.168,0.1677,0.167,0.167,0.167,0.1704,0.1663,0.1664,0.1664,0.1728,0.173,0.1731,0,0,0,0,0,0,0.1714,0.1715,0.1718,0.1713,0.1713,0.1696,0.17,0.1696,0.1697,0.1682,0.1679,0.1684,0.1669,0.1669,0.1685,0.1703,0.1664,0.1665,0.1726,0.1728,0.173,0.1771,0,0,0,0,0,0,0.1714,0.1715,0.1726,0.1714,0.1714,0.1733,0.1701,0.1697,0.1698,0.1695,0.1685,0.1682,0.1668,0.1684,0.1686,0.1703,0.1665,0.1725,0.1727,0.173,0.1768,0.1774,0.178,0,0,0,0,0,0.1713,0.1738,0.1726,0.1727,0.1727,0.1734,0.1734,0.1717,0.17,0.1711,0.1701,0.1683,0.17,0.1686,0.1687,0.1705,0.1724,0.1727,0.173,0.1766,0.1773,0.178,0,0,0,0,0,0,0.1753,0.1736,0.1723,0.1745,0.1741,0.1728,0.1741,0.1725,0.1727,0.1723,0.1702,0.17,0.1719,0.1713,0.1698,0.1733,0.1709,0.1712,0.1736,0.1743,0.1749,0.175,0.1666,0,0,0,0,0,0.1764,0.1771,0.1756,0.1776,0.1775,0.1759,0.1761,0.1748,0.1744,0.1742,0.1733,0.173,0.1735,0.1738,0.1742,0.1767,0.1765,0.178,0.1786,0.1791,0.1794,0.1807,0.1814,0.1741,0.1741,0.1741,0,0,0.1787,0.1778,0.1784,0.1784,0.178,0.1788,0.1758,0.1767,0.1773,0.1744,0.1758,0.1752,0.1746,0.1767,0.1776,0.1763,0.1814,0.1794,0.1798,0.1799,0.1811,0.1818,0.1824,0.1743,0.1742,0.1742,0,0,0.1833,0.1827,0.1844,0.184,0.1834,0.1822,0.1826,0.1816,0.181,0.1824,0.1802,0.1809,0.1817,0.1815,0.1815,0.1859,0.1843,0.1861,0.1891,0.1904,0.191,0.1915,0.1932,0.1938,0.1864,0.1865,0.1865,0,0.1862,0.1874,0.1854,0.1865,0.1866,0.1839,0.1856,0.1853,0.1848,0.185,0.1836,0.1846,0.184,0.186,0.1871,0.1872,0.1876,0.1863,0.1911,0.1916,0.192,0.1936,0.1942,0.1867,0.1867,0.1866,0.1866,0,0.191,0.1919,0.1933,0.1929,0.1931,0.1945,0.1927,0.1932,0.1919,0.1909,0.1924,0.1916,0.1918,0.1921,0.1908,0.1939,0.1932,0.1915,0.189,0.193,0.1944,0.195,0.187,0.1869,0.1869,0.1868,0,0,0.1982,0.1966,0.1972,0.197,0.1961,0.1967,0.198,0.1981,0.1986,0.1983,0.1994,0.2001,0.1986,0.1985,0.1972,0.1983,0.202,0.1965,0.1964,0.1976,0.2054,0.2068,0.2075,0.2008,0.201,0.201,0.2055,0,0.2026,0.2047,0.2029,0.2054,0.2061,0.2035,0.2046,0.2042,0.2034,0.2039,0.2029,0.2035,0.2013,0.2013,0.2023,0.2013,0.2036,0.201,0.2019,0.2019,0.2021,0.2082,0.2096,0.2139,0.206,0.2061,0.2062,0,0.208,0.2081,0.2105,0.2095,0.2097,0.2108,0.2108,0.2113,0.2108,0.21,0.21,0.2083,0.2095,0.2071,0.2087,0.207,0.2073,0.2068,0.207,0.207,0.2043,0.2085,0.2152,0.2158,0.207,0.207,0.2069,0,0.2131,0.2137,0.2152,0.2151,0.2139,0.2147,0.2143,0.2136,0.2138,0.2138,0.2139,0.2141,0.2142,0.2143,0.2128,0.2111,0.2146,0.212,0.2141,0.2142,0.215,0.215,0.2219,0.2151,0.2151,0.2151,0.2151,0,0.2182,0.2199,0.2175,0.2185,0.2202,0.2182,0.22,0.2193,0.2187,0.2195,0.2173,0.2181,0.216,0.2166,0.2153,0.2169,0.217,0.2165,0.2161,0.2167,0.2168,0.2169,0.2166,0.2152,0.2152,0.2152,0.2151,0,0.2241,0.2226,0.2242,0.2229,0.2226,0.224,0.2229,0.2237,0.2227,0.2238,0.2239,0.2223,0.2229,0.2213,0.2216,0.2208,0.2231,0.2223,0.2233,0.2231,0.2253,0.2251,0.2325,0.2334,0.226,0.226,0.2261,0,0.2276,0.2288,0.2276,0.228,0.2276,0.2283,0.2284,0.2265,0.2268,0.2263,0.2272,0.2276,0.2278,0.2289,0.2278,0.228,0.2272,0.2298,0.2273,0.2278,0.2273,0.2273,0.2274,0.2304,0.2304,0.2305,0.2306,0,0.2338,0.233,0.2333,0.2334,0.2337,0.2337,0.2335,0.2339,0.2319,0.2323,0.2329,0.233,0.2334,0.2338,0.2338,0.2334,0.2317,0.2314,0.2319,0.2325,0.2331,0.2329,0.2248,0.2312,0.2312,0.2311,0.2311,0.2311,0.2386,0.2395,0.2389,0.2394,0.239,0.2389,0.2397,0.2387,0.2391,0.2393,0.2381,0.2389,0.2384,0.2382,0.2379,0.2386,0.2374,0.2381,0.2383,0.2385,0.2389,0.2329,0.2386,0.2385,0.2385,0.2385,0.2385,0,0.2448,0.2442,0.2446,0.2445,0.2448,0.2431,0.2429,0.2433,0.244,0.2437,0.2439,0.2446,0.245,0.2439,0.2442,0.2449,0.2441,0.245,0.245,0.2449,0.2399,0.2395,0.2457,0.2457,0.2457,0.2457,0.2457,0.2457,0.248,0.2496,0.2487,0.25,0.2494,0.2502,0.2502,0.2501,0.2498,0.2506,0.251,0.2502,0.2496,0.2498,0.2501,0.2498,0.25,0.2512,0.2506,0.246,0.2453,0.2446,0.2442,0.2513,0.2513,0.2556,0.2556,0.2556]},{"header":{"parameterUnit":"m.s-1","parameterCategory":1,"la1":30.2991,"la2":30.254,"lo1":-89.0895,"lo2":-89.0444,"dx":0.0017,"dy":0.0017,"nx":28,"ny":28,"refTime":"2023-01-30T15:00:00:Z","depth":0,"parameterNumber":3,"parameterNumberName":"V-component_of_WINDS"},"data":[0,0,0,0,0,0,0,0,0,0,0,0,0,0,0,0,0,0,0,0,0,0,0,0,0,0,0,0,0,0,0,0,0,0,0,0,0,0,0,0,0,0,0,0,0,0,0,0,0,0,0,0,0,0,0,0,0,0,2.4995,2.4995,0,2.4987,2.4987,2.4987,2.4943,2.4942,2.4941,2.494,2.4932,2.4933,2.4934,0,0,0,0,0,0,0,0,0,0,0,0,0,2.4974,2.4975,2.4995,2.4995,2.4995,2.4987,2.4987,2.4987,2.4943,2.4942,2.4941,2.494,2.4932,2.4933,2.4934,0,0,0,0,0,0,0,0,0,0,0,0,0,2.4977,2.4975,2.4995,2.4972,2.497,2.4987,2.4987,2.4987,2.4944,2.4942,2.4941,2.4939,2.4932,2.4933,2.4934,2.4972,0,0,2.4937,2.4938,0,0,0,0,0,0,0,0,2.4977,2.4977,2.4976,2.4974,2.4972,2.4965,2.4977,2.4982,2.4944,2.4954,2.494,2.4938,2.4944,2.4944,2.4946,2.4972,2.4971,2.4937,2.4938,2.4938,2.4939,0,0,0,0,0,0,0,2.4976,2.4978,2.4992,2.4976,2.4973,2.4963,2.4961,2.4977,2.4958,2.4953,2.495,2.4949,2.4943,2.4945,2.4946,2.4971,2.4937,2.4938,2.4939,2.4939,2.5029,2.503,0,0,0,0,0,0,2.4979,2.4978,2.4992,2.4992,2.497,2.4965,2.4963,2.4968,2.4958,2.4954,2.4951,2.4947,2.4944,2.4944,2.4945,2.499,2.4938,2.494,2.494,2.5027,2.5029,2.5031,0,0,0,0,0,0,2.4979,2.4981,2.4993,2.4984,2.4985,2.4967,2.4973,2.4969,2.4971,2.4956,2.4952,2.4957,2.4943,2.4943,2.4966,2.4989,2.494,2.4941,2.5025,2.5028,2.503,2.508,0,0,0,0,0,0,2.4979,2.4981,2.4995,2.4985,2.4985,2.5013,2.4974,2.497,2.4973,2.4969,2.496,2.4958,2.4942,2.4964,2.4967,2.499,2.4942,2.5023,2.5026,2.5029,2.5076,2.5084,2.509,0,0,0,0,0,2.4978,2.501,2.4996,2.4998,2.5002,2.5015,2.5015,2.4996,2.4975,2.499,2.498,2.4958,2.4986,2.4967,2.497,2.4993,2.5021,2.5025,2.5029,2.5073,2.5082,2.509,0,0,0,0,0,0,2.5024,2.5008,2.4993,2.5022,2.502,2.5007,2.5025,2.5006,2.5011,2.5006,2.4982,2.4981,2.5007,2.5002,2.4981,2.503,2.5,2.5005,2.5032,2.5041,2.5048,2.5049,2.4943,0,0,0,0,0,2.5037,2.5048,2.5034,2.5061,2.5061,2.5043,2.5048,2.5033,2.503,2.5029,2.5021,2.502,2.5028,2.5034,2.5041,2.5075,2.5073,2.5092,2.5099,2.5105,2.511,2.5128,2.5137,2.5043,2.5043,2.5043,0,0,2.5065,2.5057,2.5066,2.507,2.5067,2.5079,2.5043,2.5057,2.5067,2.5032,2.5053,2.5046,2.5043,2.5072,2.5084,2.5068,2.5135,2.511,2.5115,2.5116,2.5133,2.5142,2.515,2.5046,2.5046,2.5045,0,0,2.5122,2.5117,2.514,2.5138,2.5133,2.5122,2.5127,2.5118,2.5112,2.5133,2.5107,2.5118,2.5133,2.5132,2.5133,2.5191,2.5171,2.5194,2.5232,2.525,2.5257,2.5264,2.5286,2.5294,2.5198,2.5198,2.5198,0,2.5157,2.5175,2.5154,2.517,2.5173,2.5142,2.5165,2.5164,2.5162,2.5165,2.5148,2.5166,2.5162,2.519,2.5205,2.5206,2.5212,2.5195,2.5258,2.5264,2.527,2.5291,2.5299,2.5201,2.5201,2.5201,2.52,0,2.5219,2.5232,2.5251,2.525,2.5255,2.5275,2.5257,2.5264,2.5249,2.5239,2.5261,2.5255,2.526,2.5266,2.5251,2.5292,2.5283,2.5262,2.5232,2.5282,2.5301,2.5309,2.5205,2.5204,2.5203,2.5203,0,0,2.5305,2.5293,2.53,2.53,2.5294,2.5303,2.5322,2.5327,2.5335,2.5335,2.535,2.5364,2.5345,2.5347,2.5332,2.5348,2.5395,2.5325,2.5324,2.5339,2.5442,2.5458,2.5468,2.5382,2.5383,2.5384,2.5442,0,2.5361,2.5392,2.5374,2.5408,2.542,2.5391,2.5407,2.5405,2.5396,2.5406,2.5396,2.5407,2.538,2.5381,2.5396,2.5386,2.5416,2.5382,2.5397,2.5398,2.54,2.5477,2.5494,2.555,2.5449,2.5451,2.5452,0,2.543,2.5434,2.5469,2.5461,2.5466,2.5481,2.5485,2.5494,2.5491,2.5484,2.5486,2.5467,2.5486,2.5455,2.548,2.5458,2.5462,2.5459,2.5461,2.5462,2.5428,2.5482,2.5567,2.5575,2.5463,2.5462,2.5461,0,2.5491,2.5505,2.5528,2.5528,2.5519,2.5531,2.5528,2.5523,2.5528,2.5531,2.5535,2.554,2.5543,2.5548,2.5532,2.5511,2.556,2.5527,2.5555,2.5555,2.5567,2.5567,2.5655,2.5569,2.5569,2.5568,2.5568,0,2.5556,2.5579,2.5555,2.557,2.5595,2.5573,2.5599,2.5593,2.5589,2.5602,2.5577,2.559,2.5567,2.5577,2.5564,2.5588,2.5589,2.5584,2.5581,2.5587,2.5588,2.5591,2.5587,2.5571,2.557,2.557,2.5569,0,2.5629,2.5613,2.5637,2.5627,2.5625,2.5644,2.5635,2.5648,2.5638,2.5655,2.5657,2.5641,2.5653,2.5636,2.5646,2.5637,2.567,2.566,2.5671,2.5669,2.5697,2.5695,2.5792,2.5803,2.5708,2.5709,2.571,0,2.5672,2.5689,2.5681,2.5688,2.5686,2.5697,2.5702,2.5682,2.5688,2.5687,2.57,2.5709,2.5716,2.5735,2.5724,2.5732,2.5722,2.5756,2.5723,2.573,2.5724,2.5724,2.5726,2.5763,2.5764,2.5765,2.5765,0,2.5751,2.5742,2.575,2.5756,2.5763,2.5766,2.5767,2.5775,2.5753,2.5761,2.5773,2.5778,2.5787,2.5797,2.5802,2.5798,2.5779,2.5775,2.5782,2.579,2.5796,2.5794,2.569,2.5774,2.5773,2.5772,2.5772,2.5771,2.5811,2.5825,2.5822,2.5832,2.5831,2.5833,2.5845,2.5836,2.5845,2.5852,2.5839,2.5854,2.5851,2.5855,2.5854,2.5866,2.5851,2.5861,2.5864,2.5867,2.5872,2.5793,2.5866,2.5866,2.5866,2.5866,2.5866,0,2.5889,2.5886,2.5895,2.5898,2.5906,2.5886,2.5887,2.5895,2.5909,2.5908,2.5915,2.5928,2.5938,2.5928,2.5935,2.5947,2.5938,2.5949,2.5949,2.5949,2.5884,2.5878,2.5956,2.5956,2.5956,2.5956,2.5956,2.5956,2.5931,2.5955,2.5946,2.5969,2.5965,2.598,2.5982,2.5984,2.5983,2.6,2.6007,2.6001,2.5997,2.6004,2.6012,2.6009,2.6013,2.6028,2.6022,2.5962,2.5953,2.5945,2.5939,2.6029,2.6029,2.6086,2.6087,2.6087]}]]